TimeCST,TemperatureF,Dew PointF,Humidity,Sea Level PressureIn,VisibilityMPH,Wind Direction,Wind SpeedMPH,Gust SpeedMPH,PrecipitationIn,Events,Conditions,WindDirDegrees,DateUTC
12:11 AM,39.2,35.6,87,30.14,10.0,East,4.6,-,N/A,,Unknown,80,2012-11-05 06:11:00
12:31 AM,39.2,35.6,87,30.14,10.0,East,4.6,-,N/A,,Mostly Cloudy,80,2012-11-05 06:31:00
12:52 AM,39.2,35.6,87,30.14,10.0,ENE,3.5,-,N/A,,Unknown,70,2012-11-05 06:52:00
1:11 AM,39.2,35.6,87,30.15,10.0,Calm,Calm,-,N/A,,Unknown,0,2012-11-05 07:11:00
1:31 AM,39.2,35.6,87,30.15,10.0,ENE,3.5,-,N/A,,Unknown,70,2012-11-05 07:31:00
1:52 AM,39.2,35.6,87,30.15,10.0,ENE,3.5,-,N/A,,Light Drizzle,70,2012-11-05 07:52:00
2:11 AM,39.2,35.6,87,30.15,7.0,East,5.8,-,N/A,,Light Drizzle,80,2012-11-05 08:11:00
2:31 AM,39.2,35.6,87,30.15,5.0,ESE,6.9,-,N/A,,Light Drizzle,110,2012-11-05 08:31:00
2:52 AM,37.4,37.4,100,30.15,2.5,East,5.8,-,N/A,Rain,Light Rain,100,2012-11-05 08:52:00
3:11 AM,37.4,37.4,100,30.15,2.0,East,3.5,-,N/A,,Drizzle,100,2012-11-05 09:11:00
3:31 AM,37.4,37.4,100,30.15,2.5,East,3.5,-,N/A,,Drizzle,90,2012-11-05 09:31:00
3:52 AM,37.4,37.4,100,30.15,2.5,Calm,Calm,-,N/A,,Light Drizzle,0,2012-11-05 09:52:00
4:11 AM,37.4,37.4,100,30.16,2.5,Calm,Calm,-,N/A,,Mist,0,2012-11-05 10:11:00
4:31 AM,37.4,37.4,100,30.15,2.5,East,3.5,-,N/A,,Mist,80,2012-11-05 10:31:00
4:52 AM,37.4,37.4,100,30.16,5.0,Calm,Calm,-,N/A,,Mist,0,2012-11-05 10:52:00
5:11 AM,37.4,35.6,93,30.16,7.0,East,4.6,-,N/A,,Unknown,80,2012-11-05 11:11:00
5:31 AM,37.4,35.6,93,30.16,7.0,ENE,3.5,-,N/A,,Unknown,70,2012-11-05 11:31:00
5:52 AM,37.4,35.6,93,30.16,10.0,ENE,4.6,-,N/A,,Overcast,70,2012-11-05 11:52:00
6:11 AM,37.4,33.8,87,30.16,10.0,ENE,4.6,-,N/A,,Overcast,70,2012-11-05 12:11:00
6:31 AM,37.4,33.8,87,30.17,10.0,ENE,5.8,-,N/A,,Mostly Cloudy,60,2012-11-05 12:31:00
6:52 AM,37.4,33.8,87,30.17,10.0,ENE,5.8,-,N/A,,Mostly Cloudy,60,2012-11-05 12:52:00
7:11 AM,35.6,33.8,93,30.17,10.0,ENE,4.6,-,N/A,,Scattered Clouds,70,2012-11-05 13:11:00
7:31 AM,35.6,33.8,93,30.18,10.0,ENE,4.6,-,N/A,,Mostly Cloudy,70,2012-11-05 13:31:00
7:52 AM,35.6,33.8,93,30.18,10.0,East,3.5,-,N/A,,Unknown,80,2012-11-05 13:52:00
8:11 AM,35.6,33.8,93,30.18,10.0,East,4.6,-,N/A,,Unknown,80,2012-11-05 14:11:00
8:31 AM,35.6,33.8,93,30.18,10.0,East,3.5,-,N/A,,Unknown,80,2012-11-05 14:31:00
8:52 AM,35.6,33.8,93,30.18,10.0,East,5.8,-,N/A,,Mostly Cloudy,80,2012-11-05 14:52:00
9:11 AM,37.4,33.8,87,30.18,10.0,East,5.8,-,N/A,,Mostly Cloudy,90,2012-11-05 15:11:00
9:31 AM,37.4,33.8,87,30.19,-9999.0,East,5.8,-,N/A,,Overcast,100,2012-11-05 15:31:00
9:51 AM,37.4,32.0,81,30.19,10.0,East,4.6,-,N/A,,Mostly Cloudy,90,2012-11-05 15:51:00
10:11 AM,37.4,33.8,87,30.19,10.0,East,6.9,-,N/A,,Overcast,80,2012-11-05 16:11:00
10:32 AM,37.4,33.8,87,30.19,10.0,East,5.8,-,N/A,,Overcast,100,2012-11-05 16:32:00
10:51 AM,37.4,33.8,87,30.19,10.0,ESE,3.5,-,N/A,,Overcast,110,2012-11-05 16:51:00
11:11 AM,39.2,33.8,81,30.18,10.0,East,3.5,-,N/A,,Unknown,100,2012-11-05 17:11:00
11:32 AM,39.2,33.8,81,30.18,10.0,ESE,5.8,-,N/A,,Mostly Cloudy,110,2012-11-05 17:32:00
11:51 AM,39.2,33.8,81,30.18,10.0,ESE,3.5,-,N/A,,Scattered Clouds,120,2012-11-05 17:51:00
12:11 PM,41.0,35.6,81,30.16,10.0,ESE,5.8,-,N/A,,Mostly Cloudy,120,2012-11-05 18:11:00
12:32 PM,41.0,35.6,81,30.15,10.0,SE,5.8,-,N/A,,Mostly Cloudy,130,2012-11-05 18:32:00
12:51 PM,41.0,35.6,81,30.15,10.0,SE,4.6,-,N/A,,Mostly Cloudy,140,2012-11-05 18:51:00
1:11 PM,41.0,35.6,81,30.14,10.0,SE,5.8,-,N/A,,Scattered Clouds,140,2012-11-05 19:11:00
1:32 PM,42.8,35.6,76,30.14,10.0,SE,5.8,-,N/A,,Mostly Cloudy,140,2012-11-05 19:32:00
1:51 PM,42.8,35.6,76,30.13,10.0,SE,5.8,-,N/A,,Mostly Cloudy,130,2012-11-05 19:51:00
2:11 PM,41.0,35.6,81,30.13,10.0,SE,4.6,-,N/A,,Mostly Cloudy,130,2012-11-05 20:11:00
2:32 PM,42.8,35.6,76,30.12,7.0,SE,4.6,-,N/A,,Mostly Cloudy,140,2012-11-05 20:32:00
2:51 PM,42.8,35.6,76,30.12,7.0,SE,4.6,-,N/A,,Overcast,130,2012-11-05 20:51:00
3:11 PM,42.8,35.6,76,30.11,7.0,SE,4.6,-,N/A,,Overcast,140,2012-11-05 21:11:00
3:51 PM,42.8,35.6,76,30.10,7.0,SE,4.6,-,N/A,,Mostly Cloudy,130,2012-11-05 21:51:00
4:11 PM,42.8,35.6,76,30.10,7.0,SE,3.5,-,N/A,,Mostly Cloudy,140,2012-11-05 22:11:00
4:32 PM,41.0,35.6,81,30.10,7.0,SSE,3.5,-,N/A,,Unknown,160,2012-11-05 22:32:00
4:51 PM,41.0,35.6,81,30.09,-9999.0,SSE,4.6,-,N/A,,Unknown,150,2012-11-05 22:51:00
5:11 PM,41.0,35.6,81,30.09,7.0,South,4.6,-,N/A,,Overcast,180,2012-11-05 23:11:00
5:31 PM,41.0,35.6,81,30.08,7.0,South,4.6,-,N/A,,Unknown,170,2012-11-05 23:31:00
5:51 PM,41.0,35.6,81,30.08,7.0,South,4.6,-,N/A,,Unknown,180,2012-11-05 23:51:00
6:12 PM,41.0,35.6,81,30.08,7.0,South,5.8,-,N/A,,Mostly Cloudy,190,2012-11-06 00:12:00
6:31 PM,41.0,35.6,81,30.07,7.0,South,6.9,-,N/A,,Mostly Cloudy,180,2012-11-06 00:31:00
6:52 PM,41.0,35.6,81,30.07,7.0,South,8.1,-,N/A,,Overcast,190,2012-11-06 00:52:00
7:12 PM,41.0,35.6,81,30.06,7.0,South,8.1,-,N/A,,Overcast,190,2012-11-06 01:12:00
7:31 PM,41.0,35.6,81,30.05,7.0,SSW,4.6,-,N/A,,Overcast,200,2012-11-06 01:31:00
7:52 PM,41.0,35.6,81,30.05,7.0,SSW,4.6,-,N/A,,Overcast,200,2012-11-06 01:52:00
8:12 PM,41.0,35.6,81,30.04,10.0,SSW,8.1,-,N/A,,Overcast,200,2012-11-06 02:12:00
8:31 PM,41.0,35.6,81,30.04,7.0,South,9.2,-,N/A,,Overcast,190,2012-11-06 02:31:00
8:51 PM,41.0,35.6,81,30.03,10.0,South,10.4,17.3,N/A,,Overcast,190,2012-11-06 02:51:00
9:12 PM,41.0,35.6,81,30.02,10.0,South,10.4,-,N/A,,Mostly Cloudy,180,2012-11-06 03:12:00
9:31 PM,41.0,33.8,76,30.01,10.0,South,10.4,16.1,N/A,,Overcast,190,2012-11-06 03:31:00
9:51 PM,41.0,35.6,81,30.00,7.0,South,11.5,-,N/A,,Overcast,180,2012-11-06 03:51:00
10:12 PM,41.0,35.6,81,29.99,7.0,South,10.4,-,N/A,,Mostly Cloudy,190,2012-11-06 04:12:00
10:31 PM,41.0,35.6,81,29.98,7.0,South,12.7,18.4,N/A,,Mostly Cloudy,190,2012-11-06 04:31:00
10:51 PM,41.0,35.6,81,29.96,7.0,South,11.5,18.4,N/A,,Overcast,190,2012-11-06 04:51:00
11:12 PM,39.2,35.6,87,29.95,7.0,SSW,10.4,17.3,N/A,,Mostly Cloudy,200,2012-11-06 05:12:00
11:31 PM,39.2,35.6,87,29.94,7.0,South,11.5,16.1,N/A,,Mostly Cloudy,190,2012-11-06 05:31:00
11:51 PM,39.2,35.6,87,29.94,7.0,South,9.2,-,N/A,,Overcast,190,2012-11-06 05:51:00